Preview of NWS' New Version of Forecast
This preview is not operational and should not be used for support decisions.

Regional Weather Roundup (RWR)

Issued by National Weather Service (NWS)

                            
000
ASCA42 TJSJ 211810
RWRPR 
PUERTO RICO/U.S. VIRGIN ISLANDS HOURLY WEATHER ROUNDUP
NATIONAL WEATHER SERVICE SAN JUAN PR
200 PM AST WED AUG 21 2019

PRZ001>002-007>008-010-211900-
PUERTO RICO
  
CITY           SKY/WX    TMP DP  RH WIND       PRES   REMARKS
SAN JUAN LMM   MOSUNNY   88  77  70 E20G26    30.00F HX 100           
AGUADILLA      SUNNY     90  77  66 E9G24     30.00F HX 102           
CEIBA          PTSUNNY   84  75  74 NE10      30.01F HX  92           
$$

VIZ001>002-211900-
U.S. VIRGIN ISLANDS
  
CITY           SKY/WX    TMP DP  RH WIND       PRES   REMARKS
CHARLOTTE AMA  MOSUNNY   90  72  55 E13       30.00F HX  96           
$$

HOURLY WEATHER ROUNDUP FOR THE NEWS MEDIA
  
CITY           SKY/WX    TMP DP  RH WIND       PRES   REMARKS
ORLANDO        FAIR      91  72  53 SE6       30.09F HX  98           
NEW YORK       PTSUNNY   85  76  74 S13       29.91  HX  94           
NEWARK         PTSUNNY   88  72  58 SW10G18   29.88F HX  94           
CHICAGO        PTSUNNY   83  69  62 W12       29.97S                  
HARTFORD       FAIR      81  71  71 S12G21    29.93F                  
BOSTON         CLOUDY    87  71  58 S10       29.90F HX  93           
DALLAS         MOSUNNY   96  68  39 E6        30.00F HX 101           
PHILADELPHIA   PTSUNNY   89  71  55 S15       29.90F HX  95           
LOS ANGELES    SUNNY     78  64  61 W10       29.87S                  
WASHINGTON DC  PTSUNNY   90  71  53 S8        29.91F HX  96